Thunderstorms From: 20-05-2018 15:00 Until: 21-05-2018 15:00 warning for: Thunderstorms Level: Yellow info button

Although rather usual in this region, locally or potentially dangerous phenomena are expected. (such as local winds, summer thunderstorms, rising streams or high waves) Be aware and pay attention to the latest weather updates, especially if you carry out activities exposed to weather or close to a stream or shoreline. 


Meteo18 Weather Cam more information Meteo18 Weather Cam


warning for Thunderstorms more information blitzortung!


Rain radar more information rain snow radar


Visit our other weather sites:

Template documentation
and downloads

And another site



Weather Underground History page Text

Daily Summary for January 12, 2016 Units:  Metric    English   Both
« Previous Day
Next Day »
Daily Weekly Monthly Yearly Custom
  High: Low: Average:
Temperature: -17.8 °C -16.1 °C -14.3 °C
Dew Point: -17.8 °C -16.9 °C -15.5 °C
Humidity: Humidity % 78 % 87 %
Wind Speed: 0 km/h 0 km/h 9 km/h
Wind Gust: 0 km/h - -
Wind:- - SW
Pressure: 0 hPa 33775.4 hPa -
Precipitation: 20.32 mm    
Historical Graphs
 
 
Tabular Data for January 12, 2016
Time Temperature Dew Point Pressure Wind Wind Speed Wind Gust Humidity Rainfall Rate (Hourly)
-17.8 °C -17.8 °C 0 hPa Calm     Humidity % 0 mm
00:12 -14.6 °C -15.4 °C 33775.4 hPa SW 5.1 km/h 36.2 km/h 90 % 0 mm
00:17 -14.6 °C -15.4 °C 33775.4 hPa SW 15.6 km/h 36.2 km/h 90 % 0 mm
00:22 -14.6 °C -15.4 °C 33775.4 hPa SSE 20.8 km/h 38.8 km/h 90 % 0 mm
00:27 -14.6 °C -15.4 °C 33788.9 hPa SW 7.7 km/h 38.8 km/h 90 % 0 mm
00:42 -14.4 °C -15.2 °C 33788.9 hPa SW 2.6 km/h 33.6 km/h 91 % 0 mm
00:47 -14.4 °C -15.2 °C 33788.9 hPa West 15.6 km/h 33.6 km/h 91 % 0 mm
00:57 -14.4 °C -15.2 °C 33788.9 hPa SW 20.8 km/h 31.1 km/h 91 % 0 mm
01:02 -14.3 °C -15.1 °C 33788.9 hPa WSW 18.2 km/h 31.1 km/h 91 % 0 mm
01:07 -14.3 °C -15.1 °C 33788.9 hPa SW 2.6 km/h 31.1 km/h 91 % 0 mm
01:17 -14.3 °C -15.1 °C 33788.9 hPa WSW 5.1 km/h 28.5 km/h 91 % 0 mm
01:22 -14.2 °C -15 °C 33788.9 hPa SW 12.9 km/h 36.2 km/h 91 % 0 mm
01:27 -14.2 °C -14.9 °C 33788.9 hPa WSW 20.8 km/h 38.8 km/h 91 % 0 mm
01:37 -14.1 °C -14.9 °C 33799.1 hPa WSW 10.3 km/h 38.8 km/h 90 % 0 mm
01:42 -14.1 °C -14.9 °C 33799.1 hPa WSW 25.9 km/h 33.6 km/h 90 % 0 mm
01:47 -14 °C -14.8 °C 33809.2 hPa West 5.1 km/h 31.1 km/h 90 % 0 mm
01:52 -14 °C -14.8 °C 33799.1 hPa SSW 7.7 km/h 31.1 km/h 90 % 0 mm
01:57 -14 °C -14.9 °C 33799.1 hPa SW 28.5 km/h 36.2 km/h 89 % 0 mm
02:12 -13.9 °C -14.9 °C 33799.1 hPa WSW 20.8 km/h 41.4 km/h 89 % 0 mm
02:17 -13.9 °C -14.9 °C 33809.2 hPa WSW 7.7 km/h 41.4 km/h 89 % 0 mm
02:22 -13.9 °C -14.9 °C 33809.2 hPa SW 20.8 km/h 41.4 km/h 89 % 0 mm
02:27 -13.9 °C -14.9 °C 33809.2 hPa SW 12.9 km/h 33.6 km/h 89 % 0 mm
02:32 -13.9 °C -14.9 °C 33809.2 hPa South 28.5 km/h 41.4 km/h 88 % 0 mm
02:37 -13.8 °C -14.9 °C 33809.2 hPa SW 23.3 km/h 41.4 km/h 88 % 0 mm
02:42 -13.8 °C -14.9 °C 33822.8 hPa SW 20.8 km/h 41.4 km/h 88 % 0 mm
02:47 -13.8 °C -14.9 °C 33822.8 hPa SW 31.1 km/h 38.8 km/h 88 % 0 mm
02:52 -13.8 °C -14.9 °C 33832.9 hPa SSW 10.3 km/h 36.2 km/h 88 % 0 mm
02:57 -13.8 °C -14.8 °C 33832.9 hPa SW 5.1 km/h 31.1 km/h 88 % 0 mm
03:02 -13.8 °C -14.9 °C 33832.9 hPa West 12.9 km/h 31.1 km/h 88 % 0 mm
03:07 -13.8 °C -14.8 °C 33832.9 hPa South 7.7 km/h 36.2 km/h 88 % 0 mm
03:12 -13.8 °C -14.9 °C 33843.1 hPa SSW 20.8 km/h 36.2 km/h 88 % 0 mm
03:17 -13.8 °C -14.8 °C 33843.1 hPa South 5.1 km/h 41.4 km/h 89 % 0 mm
03:22 -13.9 °C -14.9 °C 33856.6 hPa South 5.1 km/h 41.4 km/h 88 % 0 mm
03:27 -13.8 °C -14.9 °C 33866.8 hPa SW 10.3 km/h 41.4 km/h 88 % 0 mm
03:32 -13.9 °C -14.9 °C 33866.8 hPa West 15.6 km/h 31.1 km/h 88 % 0 mm
03:37 -13.9 °C -14.9 °C 33866.8 hPa SW 5.1 km/h 31.1 km/h 88 % 0 mm
03:42 -13.9 °C -14.9 °C 33880.3 hPa SSE 5.1 km/h 31.1 km/h 88 % 0 mm
03:47 -13.9 °C -14.9 °C 33880.3 hPa WSW 10.3 km/h 31.1 km/h 88 % 0 mm
03:57 -13.8 °C -15.1 °C 33880.3 hPa WSW 15.6 km/h 28.5 km/h 86 % 0 mm
04:02 -13.8 °C -15.1 °C 33880.3 hPa WSW 7.7 km/h 36.2 km/h 86 % 0 mm
04:12 -13.8 °C -15.1 °C 33890.5 hPa SW 10.3 km/h 20.8 km/h 86 % 0 mm
04:17 -13.9 °C -15.1 °C 33890.5 hPa WSW 15.6 km/h 28.5 km/h 86 % 0 mm
04:22 -13.9 °C -15.1 °C 33900.6 hPa Calm   28.5 km/h 86 % 0 mm
04:27 -13.9 °C -15.2 °C 33900.6 hPa SW 5.1 km/h 25.9 km/h 86 % 0 mm
04:32 -13.9 °C -15.1 °C 33900.6 hPa SSW 5.1 km/h 25.9 km/h 86 % 0 mm
04:42 -13.9 °C -15 °C 33914.2 hPa WSW 5.1 km/h 25.9 km/h 87 % 0 mm
04:52 -13.8 °C -14.9 °C 33924.3 hPa ENE 7.7 km/h 20.8 km/h 87 % 0 mm
04:57 -13.8 °C -14.9 °C 33924.3 hPa SW 12.9 km/h 25.9 km/h 87 % 0 mm
05:02 -13.8 °C -14.9 °C 33924.3 hPa SW 5.1 km/h 25.9 km/h 87 % 0 mm
05:07 -13.8 °C -14.9 °C 33924.3 hPa SW 18.2 km/h 18.2 km/h 87 % 0 mm
05:12 -13.8 °C -14.9 °C 33924.3 hPa WSW 10.3 km/h 18.2 km/h 87 % 0 mm
05:17 -13.8 °C -14.9 °C 33937.9 hPa WSW 7.7 km/h 25.9 km/h 87 % 0 mm
05:22 -13.8 °C -14.9 °C 33937.9 hPa NW 2.6 km/h 25.9 km/h 87 % 0 mm
05:27 -13.8 °C -14.9 °C 33937.9 hPa SW 10.3 km/h 25.9 km/h 87 % 0 mm
05:32 -13.8 °C -14.9 °C 33948 hPa SSE 12.9 km/h 25.9 km/h 87 % 0 mm
05:37 -13.8 °C -14.9 °C 33948 hPa SW 5.1 km/h 20.8 km/h 87 % 0 mm
05:47 -13.8 °C -14.9 °C 33948 hPa SSW 5.1 km/h 20.8 km/h 87 % 0 mm
05:52 -13.8 °C -14.9 °C 33948 hPa WSW 5.1 km/h 20.8 km/h 87 % 0 mm
05:57 -13.8 °C -14.9 °C 33958.2 hPa SW 12.9 km/h 25.9 km/h 87 % 0 mm
06:02 -13.9 °C -15 °C 33958.2 hPa SW 7.7 km/h 25.9 km/h 87 % 0 mm
06:12 -13.9 °C -15.1 °C 33958.2 hPa WSW 5.1 km/h 23.3 km/h 87 % 0 mm
06:17 -13.9 °C -15.1 °C 33958.2 hPa SW 12.9 km/h 23.3 km/h 87 % 0 mm
06:22 -13.9 °C -15.1 °C 33958.2 hPa WSW 5.1 km/h 23.3 km/h 87 % 0 mm
06:27 -14 °C -15 °C 33971.7 hPa SW 7.7 km/h 23.3 km/h 88 % 0 mm
06:32 -14.1 °C -15.1 °C 33971.7 hPa SW 20.8 km/h 23.3 km/h 88 % 0 mm
06:37 -14.1 °C -15.1 °C 33971.7 hPa SW 10.3 km/h 23.3 km/h 88 % 0 mm
06:42 -14.1 °C -15.1 °C 33971.7 hPa West 10.3 km/h 28.5 km/h 88 % 0 mm
06:52 -14.1 °C -15.1 °C 33971.7 hPa SW 5.1 km/h 25.9 km/h 88 % 0 mm
06:57 -14.1 °C -15.1 °C 33981.9 hPa SW 10.3 km/h 25.9 km/h 88 % 0 mm
07:07 -14.2 °C -15.2 °C 33981.9 hPa SW 7.7 km/h 25.9 km/h 89 % 0 mm
07:12 -14.2 °C -15.2 °C 33992.1 hPa SW 12.9 km/h 25.9 km/h 89 % 0 mm
07:17 -14.3 °C -15.2 °C 33992.1 hPa SSW 7.7 km/h 33.6 km/h 89 % 0 mm
07:22 -14.3 °C -15.1 °C 33992.1 hPa SW 7.7 km/h 33.6 km/h 90 % 0 mm
07:32 -14.3 °C -15.2 °C 34005.6 hPa WSW 5.1 km/h 33.6 km/h 90 % 0 mm
07:37 -14.3 °C -15.2 °C 34005.6 hPa SW 2.6 km/h 33.6 km/h 90 % 0 mm
07:42 -14.3 °C -15.2 °C 34015.8 hPa SW 5.1 km/h 20.8 km/h 90 % 0 mm
07:47 -14.3 °C -15.2 °C 34015.8 hPa SW 7.7 km/h 20.8 km/h 90 % 0 mm
07:52 -14.3 °C -15.3 °C 34029.3 hPa SW 7.7 km/h 18.2 km/h 89 % 0 mm
07:57 -14.3 °C -15.3 °C 34029.3 hPa WSW 7.7 km/h 18.2 km/h 89 % 0 mm
08:02 -14.3 °C -15.2 °C 34029.3 hPa SW 7.7 km/h 23.3 km/h 89 % 0 mm
08:12 -14.3 °C -15.3 °C 34029.3 hPa SSW 7.7 km/h 23.3 km/h 89 % 0 mm
08:17 -14.3 °C -15.3 °C 34029.3 hPa WSW 2.6 km/h 23.3 km/h 89 % 0 mm
08:22 -14.3 °C -15.3 °C 34029.3 hPa SW 12.9 km/h 25.9 km/h 89 % 0 mm
08:27 -14.3 °C -15.3 °C 34039.5 hPa SW 10.3 km/h 25.9 km/h 89 % 0 mm
08:37 -14.4 °C -15.4 °C 34039.5 hPa SW 12.9 km/h 33.6 km/h 89 % 0 mm
08:42 -14.4 °C -15.3 °C 34039.5 hPa WSW 23.3 km/h 28.5 km/h 90 % 0 mm
08:47 -14.4 °C -15.2 °C 34039.5 hPa SSW 18.2 km/h 28.5 km/h 90 % 0 mm
08:52 -14.4 °C -15.2 °C 34039.5 hPa WSW 23.3 km/h 28.5 km/h 90 % 0 mm
08:57 -14.4 °C -15.2 °C 34039.5 hPa WSW 12.9 km/h 31.1 km/h 90 % 0 mm
09:12 -14.5 °C -15.3 °C 34049.6 hPa SW 15.6 km/h 25.9 km/h 90 % 0 mm
09:17 -14.6 °C -15.4 °C 34049.6 hPa SW 12.9 km/h 28.5 km/h 90 % 0 mm
09:22 -14.6 °C -15.4 °C 34049.6 hPa SW 5.1 km/h 28.5 km/h 90 % 0 mm
09:32 -14.6 °C -15.4 °C 34063.2 hPa SSW 12.9 km/h 28.5 km/h 90 % 0 mm
09:37 -14.6 °C -15.4 °C 34063.2 hPa SSW 5.1 km/h 28.5 km/h 90 % 0 mm
09:42 -14.6 °C -15.4 °C 34063.2 hPa SE 2.6 km/h 28.5 km/h 90 % 0 mm
09:52 -14.4 °C -15.3 °C 34073.3 hPa WSW 5.1 km/h 28.5 km/h 89 % 0 mm
09:57 -14.4 °C -15.3 °C 34073.3 hPa SW 10.3 km/h 28.5 km/h 89 % 0 mm
10:02 -14.3 °C -15.3 °C 34073.3 hPa SW 12.9 km/h 23.3 km/h 89 % 0 mm
10:07 -14.3 °C -15.3 °C 34073.3 hPa WSW 10.3 km/h 20.8 km/h 89 % 0 mm
10:12 -14.3 °C -15.2 °C 34086.9 hPa SW 10.3 km/h 23.3 km/h 89 % 0 mm
10:17 -14.2 °C -15.2 °C 34086.9 hPa SW 7.7 km/h 23.3 km/h 89 % 0 mm
10:22 -14.2 °C -15.2 °C 34086.9 hPa WSW 10.3 km/h 23.3 km/h 89 % 0 mm
10:32 -14.1 °C -15.1 °C 34086.9 hPa WSW 18.2 km/h 25.9 km/h 89 % 0 mm
10:42 -13.9 °C -15.1 °C 34086.9 hPa SW 23.3 km/h 25.9 km/h 87 % 0 mm
10:47 -13.9 °C -15 °C 34086.9 hPa SW 7.7 km/h 25.9 km/h 87 % 0 mm
10:52 -13.8 °C -14.9 °C 34086.9 hPa SSW 7.7 km/h 25.9 km/h 87 % 0 mm
10:57 -13.8 °C -14.9 °C 34086.9 hPa SSE 12.9 km/h 25.9 km/h 87 % 0 mm
11:02 -13.8 °C -14.9 °C 34097 hPa South 7.7 km/h 25.9 km/h 87 % 0 mm
11:07 -13.7 °C -14.9 °C 34086.9 hPa SW 7.7 km/h 25.9 km/h 86 % 0 mm
11:12 -13.6 °C -14.8 °C 34086.9 hPa SW 10.3 km/h 25.9 km/h 86 % 0 mm
11:17 -13.5 °C -14.8 °C 34097 hPa SW 12.9 km/h 36.2 km/h 85 % 0 mm
11:27 -13.6 °C -15 °C 34097 hPa SW 7.7 km/h 44.1 km/h 84 % 0 mm
11:32 -13.7 °C -15 °C 34097 hPa SW 5.1 km/h 44.1 km/h 85 % 0 mm
11:37 -13.7 °C -15.1 °C 34086.9 hPa WSW 15.6 km/h 36.2 km/h 84 % 0 mm
11:42 -13.8 °C -15.1 °C 34097 hPa SSW 15.6 km/h 36.2 km/h 85 % 0 mm
11:47 -13.7 °C -15.1 °C 34097 hPa West 5.1 km/h 33.6 km/h 85 % 0 mm
11:52 -13.7 °C -15.1 °C 34097 hPa SSW 15.6 km/h 33.6 km/h 84 % 0 mm
11:57 -13.7 °C -15 °C 34097 hPa WSW 2.6 km/h 33.6 km/h 85 % 0 mm
12:02 -13.6 °C -14.9 °C 34086.9 hPa SW 10.3 km/h 33.6 km/h 85 % 0 mm
12:07 -13.5 °C -14.9 °C 34097 hPa South 7.7 km/h 25.9 km/h 84 % 0 mm
12:12 -13.4 °C -14.9 °C 34086.9 hPa West 15.6 km/h 31.1 km/h 83 % 0 mm
12:17 -13.4 °C -14.9 °C 34086.9 hPa ESE 7.7 km/h 31.1 km/h 83 % 0 mm
12:22 -13.4 °C -15.2 °C 34086.9 hPa SSE 20.8 km/h 31.1 km/h 80 % 0 mm
12:27 -13.3 °C -15.1 °C 34086.9 hPa SSW 5.1 km/h 36.2 km/h 80 % 0 mm
12:32 -13.2 °C -14.9 °C 34086.9 hPa SW 7.7 km/h 36.2 km/h 81 % 0 mm
12:42 -13.2 °C -14.9 °C 34086.9 hPa SSE 5.1 km/h 25.9 km/h 81 % 0 mm
12:47 -13.1 °C -14.9 °C 34086.9 hPa SW 12.9 km/h 25.9 km/h 80 % 0 mm
12:52 -13.2 °C -15.1 °C 34086.9 hPa WSW 7.7 km/h 33.6 km/h 79 % 0 mm
12:57 -13.2 °C -15 °C 34086.9 hPa SW 10.3 km/h 33.6 km/h 80 % 0 mm
13:02 -13.2 °C -14.9 °C 34086.9 hPa WSW 5.1 km/h 33.6 km/h 81 % 0 mm
13:07 -13.1 °C -14.8 °C 34086.9 hPa SW 10.3 km/h 20.8 km/h 81 % 0 mm
13:12 -13.1 °C -15 °C 34086.9 hPa SW 20.8 km/h 33.6 km/h 79 % 0 mm
13:17 -13.2 °C -15.1 °C 34086.9 hPa SW 18.2 km/h 33.6 km/h 79 % 0 mm
13:22 -13.4 °C -15.1 °C 34086.9 hPa SW 12.9 km/h 33.6 km/h 81 % 0 mm
13:32 -13.7 °C -15.1 °C 34086.9 hPa SW 5.1 km/h 31.1 km/h 84 % 7.62 mm
13:37 -13.7 °C -15.1 °C 34086.9 hPa WSW 23.3 km/h 28.5 km/h 84 % 7.62 mm
13:42 -13.7 °C -15.2 °C 34086.9 hPa SW 12.9 km/h 28.5 km/h 83 % 7.62 mm
13:47 -13.6 °C -15.1 °C 34086.9 hPa SW 7.7 km/h 31.1 km/h 83 % 7.62 mm
13:52 -13.5 °C -15.2 °C 34086.9 hPa WSW 7.7 km/h 31.1 km/h 81 % 7.62 mm
13:57 -13.4 °C -15.2 °C 34086.9 hPa West 2.6 km/h 31.1 km/h 81 % 7.62 mm
14:12 -13.4 °C -15.4 °C 34073.3 hPa SSW 12.9 km/h 33.6 km/h 78 % 7.62 mm
14:17 -13.4 °C -15.4 °C 34073.3 hPa SW 12.9 km/h 33.6 km/h 78 % 7.62 mm
14:22 -13.5 °C -15.4 °C 34086.9 hPa SW 10.3 km/h 33.6 km/h 79 % 7.62 mm
14:32 -13.5 °C -15.4 °C 34073.3 hPa SW 18.2 km/h 28.5 km/h 79 % 0 mm
14:37 -13.5 °C -15.3 °C 34073.3 hPa West 7.7 km/h 31.1 km/h 80 % 0 mm
14:42 -13.6 °C -15.3 °C 34073.3 hPa SW 20.8 km/h 31.1 km/h 80 % 0 mm
14:47 -13.7 °C -15.3 °C 34073.3 hPa WSW 7.7 km/h 38.8 km/h 82 % 7.62 mm
14:52 -13.8 °C -15.3 °C 34086.9 hPa SSE 7.7 km/h 38.8 km/h 83 % 7.62 mm
14:57 -13.9 °C -15.3 °C 34086.9 hPa SW 20.8 km/h 38.8 km/h 84 % 7.62 mm
15:02 -14.1 °C -15.3 °C 34073.3 hPa Calm   28.5 km/h 86 % 12.7 mm
15:12 -14.1 °C -15.2 °C 34086.9 hPa SW 12.9 km/h 28.5 km/h 87 % 12.7 mm
15:22 -14 °C -15.3 °C 34086.9 hPa WSW 7.7 km/h 23.3 km/h 85 % 12.7 mm
15:37 -13.9 °C -15.3 °C 34086.9 hPa West 2.6 km/h 31.1 km/h 84 % 12.7 mm
15:42 -13.9 °C -15.3 °C 34086.9 hPa WSW 10.3 km/h 31.1 km/h 84 % 12.7 mm
15:47 -14 °C -15.4 °C 34086.9 hPa SW 7.7 km/h 23.3 km/h 84 % 7.62 mm
15:52 -14 °C -15.3 °C 34086.9 hPa SW 2.6 km/h 23.3 km/h 85 % 7.62 mm
15:57 -14 °C -15.5 °C 34086.9 hPa SSW 2.6 km/h 23.3 km/h 83 % 7.62 mm
16:02 -14 °C -15.4 °C 34097 hPa WSW 12.9 km/h 23.3 km/h 84 % 0 mm
16:17 -13.9 °C -15.8 °C 34097 hPa WSW 7.7 km/h 25.9 km/h 79 % 0 mm
16:22 -14 °C -15.8 °C 34107.2 hPa WSW 10.3 km/h 25.9 km/h 80 % 0 mm
16:32 -14 °C -15.8 °C 34107.2 hPa West 15.6 km/h 23.3 km/h 80 % 0 mm
16:37 -14 °C -15.8 °C 34107.2 hPa WSW 12.9 km/h 23.3 km/h 80 % 0 mm
16:42 -14.1 °C -15.7 °C 34107.2 hPa WSW 12.9 km/h 23.3 km/h 81 % 0 mm
16:57 -14.2 °C -15.5 °C 34120.7 hPa Calm   20.8 km/h 85 % 0 mm
17:02 -14.2 °C -15.5 °C 34130.9 hPa SW 5.1 km/h 18.2 km/h 85 % 0 mm
17:12 -14.4 °C -15.5 °C 34130.9 hPa SSW 10.3 km/h 18.2 km/h 87 % 7.62 mm
17:17 -14.4 °C -15.7 °C 34144.4 hPa Calm   15.6 km/h 86 % 7.62 mm
17:22 -14.4 °C -15.7 °C 34144.4 hPa WSW 2.6 km/h 15.6 km/h 85 % 7.62 mm
17:27 -14.5 °C -15.7 °C 34144.4 hPa SSE 5.1 km/h 15.6 km/h 86 % 7.62 mm
17:32 -14.5 °C -15.7 °C 34144.4 hPa Calm   15.6 km/h 86 % 7.62 mm
17:42 -14.4 °C -15.7 °C 34154.6 hPa SW 2.6 km/h 10.3 km/h 85 % 7.62 mm
17:52 -14.4 °C -15.8 °C 34164.7 hPa WSW 2.6 km/h 20.8 km/h 84 % 7.62 mm
17:57 -14.6 °C -15.8 °C 34164.7 hPa SSW 7.7 km/h 20.8 km/h 85 % 7.62 mm
18:02 -14.6 °C -15.8 °C 34164.7 hPa Calm   28.5 km/h 85 % 7.62 mm
18:12 -14.7 °C -15.9 °C 34178.3 hPa SW 2.6 km/h 20.8 km/h 86 % 0 mm
18:17 -14.7 °C -15.8 °C 34178.3 hPa SSW 7.7 km/h 20.8 km/h 87 % 0 mm
18:22 -14.8 °C -15.9 °C 34178.3 hPa SSW 12.9 km/h 18.2 km/h 87 % 0 mm
18:27 -14.9 °C -16 °C 34178.3 hPa Calm   18.2 km/h 87 % 0 mm
18:32 -14.9 °C -16.1 °C 34188.4 hPa NNE 2.6 km/h 18.2 km/h 87 % 0 mm
18:37 -14.9 °C -15.9 °C 34198.6 hPa Calm   18.2 km/h 88 % 0 mm
18:42 -15 °C -16 °C 34198.6 hPa SSE 2.6 km/h 15.6 km/h 88 % 0 mm
18:47 -15 °C -16 °C 34198.6 hPa NE 2.6 km/h 15.6 km/h 88 % 0 mm
18:52 -14.9 °C -15.9 °C 34212.1 hPa Calm   15.6 km/h 88 % 0 mm
18:57 -15.1 °C -16.4 °C 34212.1 hPa ENE 2.6 km/h 23.3 km/h 85 % 0 mm
19:02 -15.3 °C -16.4 °C 34212.1 hPa Calm   23.3 km/h 87 % 0 mm
19:12 -15.2 °C -16.2 °C 34222.3 hPa SSE 2.6 km/h 18.2 km/h 89 % 0 mm
19:17 -15.1 °C -16.1 °C 34222.3 hPa Calm   12.9 km/h 88 % 0 mm
19:22 -15.1 °C -16.1 °C 34222.3 hPa SW 2.6 km/h 12.9 km/h 88 % 0 mm
19:27 -15 °C -16 °C 34235.8 hPa WNW 2.6 km/h 20.8 km/h 88 % 0 mm
19:32 -15.1 °C -16.1 °C 34235.8 hPa SSW 5.1 km/h 20.8 km/h 88 % 0 mm
19:37 -15.1 °C -16.1 °C 34235.8 hPa SW 5.1 km/h 20.8 km/h 88 % 0 mm
19:42 -15.1 °C -16.1 °C 34235.8 hPa WSW 2.6 km/h 15.6 km/h 89 % 0 mm
19:52 -15.2 °C -16.1 °C 34246 hPa WSW 5.1 km/h 18.2 km/h 89 % 0 mm
19:57 -15.2 °C -16.2 °C 34256.2 hPa SW 5.1 km/h 18.2 km/h 89 % 0 mm
20:07 -15.3 °C -16.3 °C 34256.2 hPa West 5.1 km/h 15.6 km/h 89 % 0 mm
20:12 -15.3 °C -16.3 °C 34269.7 hPa WSW 2.6 km/h 15.6 km/h 89 % 0 mm
20:22 -15.3 °C -16.2 °C 34269.7 hPa SW 2.6 km/h 15.6 km/h 89 % 0 mm
20:27 -15.3 °C -16.2 °C 34269.7 hPa SW 7.7 km/h 15.6 km/h 89 % 0 mm
20:32 -15.3 °C -16.2 °C 34279.9 hPa Calm   28.5 km/h 89 % 0 mm
20:37 -15.3 °C -16.3 °C 34279.9 hPa Calm   28.5 km/h 89 % 0 mm
20:42 -15.3 °C -16.3 °C 34279.9 hPa SSE 7.7 km/h 28.5 km/h 88 % 0 mm
20:47 -15.3 °C -16.3 °C 34279.9 hPa SW 7.7 km/h 18.2 km/h 88 % 0 mm
20:52 -15.4 °C -16.4 °C 34293.4 hPa WSW 7.7 km/h 18.2 km/h 88 % 0 mm
20:57 -15.4 °C -16.4 °C 34293.4 hPa WSW 5.1 km/h 18.2 km/h 88 % 0 mm
21:02 -15.4 °C -16.4 °C 34293.4 hPa WSW 5.1 km/h 18.2 km/h 88 % 0 mm
21:07 -15.4 °C -16.4 °C 34293.4 hPa SW 15.6 km/h 18.2 km/h 88 % 0 mm
21:17 -15.5 °C -16.5 °C 34293.4 hPa East 5.1 km/h 18.2 km/h 88 % 0 mm
21:22 -15.6 °C -16.5 °C 34293.4 hPa SW 7.7 km/h 20.8 km/h 89 % 0 mm
21:27 -15.7 °C -16.6 °C 34293.4 hPa WSW 5.1 km/h 20.8 km/h 89 % 0 mm
21:42 -15.7 °C -16.6 °C 34303.6 hPa SW 7.7 km/h 23.3 km/h 89 % 0 mm
21:52 -15.8 °C -16.6 °C 34313.7 hPa Calm   23.3 km/h 90 % 0 mm
21:57 -15.8 °C -16.6 °C 34313.7 hPa WSW 2.6 km/h 18.2 km/h 90 % 0 mm
22:02 -15.8 °C -16.6 °C 34313.7 hPa SSW 7.7 km/h 18.2 km/h 90 % 0 mm
22:12 -15.8 °C -16.6 °C 34327.3 hPa SSW 5.1 km/h 18.2 km/h 90 % 0 mm
22:17 -15.8 °C -16.6 °C 34327.3 hPa SW 5.1 km/h 20.8 km/h 90 % 0 mm
22:22 -15.8 °C -16.6 °C 34327.3 hPa SW 10.3 km/h 20.8 km/h 90 % 0 mm
22:32 -15.8 °C -16.7 °C 34327.3 hPa WSW 2.6 km/h 25.9 km/h 90 % 0 mm
22:37 -15.9 °C -16.7 °C 34327.3 hPa SW 5.1 km/h 25.9 km/h 90 % 0 mm
22:42 -15.9 °C -16.7 °C 34337.4 hPa SW 18.2 km/h 25.9 km/h 90 % 0 mm
22:47 -15.9 °C -16.8 °C 34337.4 hPa SW 7.7 km/h 36.2 km/h 89 % 0 mm
22:52 -15.9 °C -16.8 °C 34337.4 hPa WSW 10.3 km/h 36.2 km/h 89 % 0 mm
22:57 -15.9 °C -16.8 °C 34347.6 hPa SW 7.7 km/h 25.9 km/h 89 % 0 mm
23:02 -15.9 °C -16.8 °C 34347.6 hPa WSW 2.6 km/h 20.8 km/h 89 % 0 mm
23:12 -16 °C -16.9 °C 34347.6 hPa WNW 5.1 km/h 20.8 km/h 89 % 0 mm
23:17 -16 °C -16.9 °C 34361.1 hPa WSW 5.1 km/h 20.8 km/h 89 % 0 mm
23:22 -15.9 °C -16.8 °C 34361.1 hPa SW 10.3 km/h 31.1 km/h 89 % 0 mm
23:32 -16 °C -16.9 °C 34361.1 hPa South 7.7 km/h 31.1 km/h 89 % 0 mm
23:37 -16 °C -16.9 °C 34371.3 hPa SW 10.3 km/h 15.6 km/h 89 % 0 mm
23:42 -16 °C -16.9 °C 34371.3 hPa WSW 7.7 km/h 18.2 km/h 89 % 0 mm
23:47 -16.1 °C -16.9 °C 34371.3 hPa SW 15.6 km/h 18.2 km/h 89 % 0 mm
23:52 -16.1 °C -16.9 °C 34384.8 hPa SW 2.6 km/h 20.8 km/h 89 % 0 mm
23:57 -16.1 °C -16.9 °C 34384.8 hPa SW 2.6 km/h 23.3 km/h 89 % 0 mm
Meteo18
Compliments of Weather Underground - 4 mb

Script developed by  Jim McMurry - jmcmurry@mwt.net Adapted for the template by  Wim van der Kuil - Leuven-Template.eu

You find our weather info also at:

European Weather Network

Weather Underground

Equipment we use:

Weather-station
Davis Vue

Weather-program
Meteobridge

Weather-server
Raspberry PI 2 B+

Provider
1 and 1

Davis Vue

Meteobridge

Raspberry PI 2 B+

1 and 1